Year,Month,Day,Hour,Minute,Value (Times are PST for windgust in km/hr)
2010,08,26,00,00,4.80
2010,08,26,00,01,4.80
2010,08,26,00,02,4.80
2010,08,26,00,03,6.40
2010,08,26,00,04,8.10
2010,08,26,00,05,3.20
2010,08,26,00,06,4.80
2010,08,26,00,07,3.20
2010,08,26,00,08,4.80
2010,08,26,00,09,6.40
2010,08,26,00,10,4.80
2010,08,26,00,11,6.40
2010,08,26,00,12,6.40
2010,08,26,00,13,3.20
2010,08,26,00,14,3.20
2010,08,26,00,15,6.40
2010,08,26,00,16,3.20
2010,08,26,00,17,3.20
2010,08,26,00,23,1.60
2010,08,26,00,24,1.60
2010,08,26,00,25,1.60
2010,08,26,00,26,1.60
2010,08,26,00,27,3.20
2010,08,26,00,28,3.20
2010,08,26,00,29,1.60
2010,08,26,00,30,4.80
2010,08,26,00,32,1.60
2010,08,26,00,34,3.20
2010,08,26,00,35,3.20
2010,08,26,00,38,3.20
2010,08,26,00,40,3.20
2010,08,26,00,46,3.20
2010,08,26,00,47,3.20
2010,08,26,00,48,3.20
2010,08,26,00,49,3.20
2010,08,26,00,50,1.60
2010,08,26,00,51,3.20
2010,08,26,00,52,3.20
2010,08,26,00,53,3.20
2010,08,26,00,54,6.40
2010,08,26,00,55,3.20
2010,08,26,00,56,3.20
2010,08,26,00,57,3.20
2010,08,26,00,58,4.80
2010,08,26,00,59,3.20
2010,08,26,01,00,4.80
2010,08,26,01,01,3.20
2010,08,26,01,09,1.60
2010,08,26,01,10,3.20
2010,08,26,01,18,3.20
2010,08,26,01,19,4.80
2010,08,26,01,20,3.20
2010,08,26,01,21,3.20
2010,08,26,01,22,3.20
2010,08,26,01,23,3.20
2010,08,26,01,24,3.20
2010,08,26,01,30,4.80
2010,08,26,01,31,3.20
2010,08,26,01,32,6.40
2010,08,26,01,33,4.80
2010,08,26,01,34,8.10
2010,08,26,01,35,6.40
2010,08,26,01,36,8.10
2010,08,26,01,37,8.10
2010,08,26,01,38,8.10
2010,08,26,01,39,6.40
2010,08,26,01,40,8.10
2010,08,26,01,41,8.10
2010,08,26,01,42,8.10
2010,08,26,01,43,11.30
2010,08,26,01,44,9.60
2010,08,26,01,45,14.50
2010,08,26,01,46,9.60
2010,08,26,01,47,9.60
2010,08,26,01,48,9.60
2010,08,26,01,49,8.10
2010,08,26,01,50,8.10
2010,08,26,01,51,8.10
2010,08,26,01,52,8.10
2010,08,26,01,53,6.40
2010,08,26,01,54,4.80
2010,08,26,01,55,9.60
2010,08,26,01,56,6.40
2010,08,26,01,57,6.40
2010,08,26,01,58,6.40
2010,08,26,01,59,8.10
2010,08,26,02,00,4.80
2010,08,26,02,01,3.20
2010,08,26,02,05,4.80
2010,08,26,02,06,4.80
2010,08,26,02,07,3.20
2010,08,26,02,08,6.40
2010,08,26,02,09,9.60
2010,08,26,02,10,8.10
2010,08,26,02,11,8.10
2010,08,26,02,12,12.90
2010,08,26,02,13,11.30
2010,08,26,02,14,16.10
2010,08,26,02,15,17.70
2010,08,26,02,16,17.70
2010,08,26,02,17,9.60
2010,08,26,02,18,9.60
2010,08,26,02,19,9.60
2010,08,26,02,20,11.30
2010,08,26,02,21,12.90
2010,08,26,02,22,16.10
2010,08,26,02,23,11.30
2010,08,26,02,24,14.50
2010,08,26,02,25,17.70
2010,08,26,02,26,14.50
2010,08,26,02,27,16.10
2010,08,26,02,28,11.30
2010,08,26,02,29,16.10
2010,08,26,02,30,9.60
2010,08,26,02,31,9.60
2010,08,26,02,32,8.10
2010,08,26,02,33,6.40
2010,08,26,02,34,3.20
2010,08,26,02,35,4.80
2010,08,26,02,36,3.20
2010,08,26,02,37,3.20
2010,08,26,02,38,4.80
2010,08,26,02,39,3.20
2010,08,26,02,41,1.60
2010,08,26,02,42,3.20
2010,08,26,02,43,3.20
2010,08,26,02,45,3.20
2010,08,26,02,46,3.20
2010,08,26,02,48,3.20
2010,08,26,02,49,1.60
2010,08,26,02,52,1.60
2010,08,26,02,53,3.20
2010,08,26,02,56,1.60
2010,08,26,02,59,4.80
2010,08,26,03,06,4.80
2010,08,26,03,07,4.80
2010,08,26,03,08,1.60
2010,08,26,03,43,1.60
2010,08,26,04,53,1.60
2010,08,26,04,57,3.20
2010,08,26,04,58,1.60
2010,08,26,06,59,4.80
2010,08,26,07,00,4.80
2010,08,26,07,01,4.80
2010,08,26,07,02,4.80
2010,08,26,07,03,6.40
2010,08,26,07,04,8.10
2010,08,26,07,05,9.60
2010,08,26,07,06,9.60
2010,08,26,07,07,9.60
2010,08,26,07,08,8.10
2010,08,26,07,09,6.40
2010,08,26,07,10,8.10
2010,08,26,07,11,9.60
2010,08,26,07,12,11.30
2010,08,26,07,13,9.60
2010,08,26,07,14,6.40
2010,08,26,07,15,6.40
2010,08,26,07,16,8.10
2010,08,26,07,17,4.80
2010,08,26,07,18,9.60
2010,08,26,07,19,9.60
2010,08,26,07,20,8.10
2010,08,26,07,21,6.40
2010,08,26,07,22,9.60
2010,08,26,07,23,11.30
2010,08,26,07,24,8.10
2010,08,26,07,25,9.60
2010,08,26,07,26,3.20
2010,08,26,07,27,4.80
2010,08,26,07,28,8.10
2010,08,26,07,29,8.10
2010,08,26,07,30,8.10
2010,08,26,07,31,9.60
2010,08,26,07,32,4.80
2010,08,26,07,33,8.10
2010,08,26,07,34,9.60
2010,08,26,07,35,14.50
2010,08,26,07,36,11.30
2010,08,26,07,37,9.60
2010,08,26,07,38,9.60
2010,08,26,07,39,16.10
2010,08,26,07,40,9.60
2010,08,26,07,41,17.70
2010,08,26,07,42,14.50
2010,08,26,07,43,6.40
2010,08,26,07,44,9.60
2010,08,26,07,45,12.90
2010,08,26,07,46,11.30
2010,08,26,07,47,14.50
2010,08,26,07,48,11.30
2010,08,26,07,49,8.10
2010,08,26,07,50,6.40
2010,08,26,07,51,8.10
2010,08,26,07,52,9.60
2010,08,26,07,53,8.10
2010,08,26,07,54,11.30
2010,08,26,07,55,8.10
2010,08,26,07,56,8.10
2010,08,26,07,57,6.40
2010,08,26,07,58,14.50
2010,08,26,07,59,6.40
2010,08,26,08,00,3.20
2010,08,26,08,01,4.80
2010,08,26,08,02,8.10
2010,08,26,08,03,6.40
2010,08,26,08,04,4.80
2010,08,26,08,06,3.20
2010,08,26,08,07,8.10
2010,08,26,08,08,4.80
2010,08,26,08,09,3.20
2010,08,26,08,10,11.30
2010,08,26,08,11,6.40
2010,08,26,08,12,9.60
2010,08,26,08,13,4.80
2010,08,26,08,14,4.80
2010,08,26,08,15,11.30
2010,08,26,08,16,14.50
2010,08,26,08,17,9.60
2010,08,26,08,18,6.40
2010,08,26,08,19,11.30
2010,08,26,08,20,8.10
2010,08,26,08,21,6.40
2010,08,26,08,22,4.80
2010,08,26,08,23,8.10
2010,08,26,08,24,8.10
2010,08,26,08,25,9.60
2010,08,26,08,26,9.60
2010,08,26,08,27,6.40
2010,08,26,08,28,8.10
2010,08,26,08,29,4.80
2010,08,26,08,30,8.10
2010,08,26,08,31,16.10
2010,08,26,08,32,14.50
2010,08,26,08,33,16.10
2010,08,26,08,34,6.40
2010,08,26,08,35,14.50
2010,08,26,08,36,11.30
2010,08,26,08,37,8.10
2010,08,26,08,38,8.10
2010,08,26,08,39,11.30
2010,08,26,08,40,19.30
2010,08,26,08,41,16.10
2010,08,26,08,42,9.60
2010,08,26,08,43,17.70
2010,08,26,08,44,17.70
2010,08,26,08,45,8.10
2010,08,26,08,46,12.90
2010,08,26,08,47,14.50
2010,08,26,08,48,9.60
2010,08,26,08,49,14.50
2010,08,26,08,50,11.30
2010,08,26,08,51,17.70
2010,08,26,08,52,16.10
2010,08,26,08,53,8.10
2010,08,26,08,54,3.20
2010,08,26,08,55,6.40
2010,08,26,08,56,6.40
2010,08,26,08,57,8.10
2010,08,26,08,58,6.40
2010,08,26,08,59,11.30
2010,08,26,09,00,9.60
2010,08,26,09,01,11.30
2010,08,26,09,02,14.50
2010,08,26,09,03,9.60
2010,08,26,09,04,8.10
2010,08,26,09,05,6.40
2010,08,26,09,06,11.30
2010,08,26,09,07,11.30
2010,08,26,09,08,4.80
2010,08,26,09,09,3.20
2010,08,26,09,10,19.30
2010,08,26,09,11,14.50
2010,08,26,09,12,8.10
2010,08,26,09,13,11.30
2010,08,26,09,14,16.10
2010,08,26,09,15,12.90
2010,08,26,09,16,8.10
2010,08,26,09,17,6.40
2010,08,26,09,18,17.70
2010,08,26,09,19,12.90
2010,08,26,09,20,14.50
2010,08,26,09,21,8.10
2010,08,26,09,22,8.10
2010,08,26,09,23,4.80
2010,08,26,09,24,8.10
2010,08,26,09,25,11.30
2010,08,26,09,26,8.10
2010,08,26,09,27,16.10
2010,08,26,09,28,11.30
2010,08,26,09,29,11.30
2010,08,26,09,30,14.50
2010,08,26,09,31,8.10
2010,08,26,09,32,8.10
2010,08,26,09,33,9.60
2010,08,26,09,34,8.10
2010,08,26,09,35,8.10
2010,08,26,09,36,11.30
2010,08,26,09,37,12.90
2010,08,26,09,38,14.50
2010,08,26,09,39,8.10
2010,08,26,09,40,11.30
2010,08,26,09,41,9.60
2010,08,26,09,42,14.50
2010,08,26,09,43,16.10
2010,08,26,09,44,14.50
2010,08,26,09,45,16.10
2010,08,26,09,46,11.30
2010,08,26,09,47,17.70
2010,08,26,09,48,14.50
2010,08,26,09,49,14.50
2010,08,26,09,50,14.50
2010,08,26,09,51,11.30
2010,08,26,09,52,17.70
2010,08,26,09,53,14.50
2010,08,26,09,54,8.10
2010,08,26,09,55,9.60
2010,08,26,09,56,19.30
2010,08,26,09,57,16.10
2010,08,26,09,58,9.60
2010,08,26,09,59,6.40
2010,08,26,10,00,8.10
2010,08,26,10,01,8.10
2010,08,26,10,02,9.60
2010,08,26,10,03,11.30
2010,08,26,10,04,9.60
2010,08,26,10,05,11.30
2010,08,26,10,06,6.40
2010,08,26,10,07,4.80
2010,08,26,10,08,6.40
2010,08,26,10,09,4.80
2010,08,26,10,10,9.60
2010,08,26,10,11,6.40
2010,08,26,10,12,12.90
2010,08,26,10,13,16.10
2010,08,26,10,14,6.40
2010,08,26,10,15,3.20
2010,08,26,10,16,20.90
2010,08,26,10,17,22.50
2010,08,26,10,18,3.20
2010,08,26,10,19,9.60
2010,08,26,10,20,12.90
2010,08,26,10,21,11.30
2010,08,26,10,22,3.20
2010,08,26,10,23,16.10
2010,08,26,10,24,30.60
2010,08,26,10,25,9.60
2010,08,26,10,26,16.10
2010,08,26,10,27,20.90
2010,08,26,10,28,17.70
2010,08,26,10,29,9.60
2010,08,26,10,30,11.30
2010,08,26,10,31,17.70
2010,08,26,10,32,11.30
2010,08,26,10,33,19.30
2010,08,26,10,34,17.70
2010,08,26,10,35,19.30
2010,08,26,10,36,19.30
2010,08,26,10,37,35.40
2010,08,26,10,38,29.00
2010,08,26,10,39,16.10
2010,08,26,10,40,11.30
2010,08,26,10,41,11.30
2010,08,26,10,42,32.20
2010,08,26,10,43,22.50
2010,08,26,10,44,20.90
2010,08,26,10,45,30.60
2010,08,26,10,46,33.80
2010,08,26,10,47,8.10
2010,08,26,10,48,22.50
2010,08,26,10,49,19.30
2010,08,26,10,50,9.60
2010,08,26,10,51,12.90
2010,08,26,10,52,24.20
2010,08,26,10,53,24.20
2010,08,26,10,54,29.00
2010,08,26,10,55,25.70
2010,08,26,10,56,22.50
2010,08,26,10,57,20.90
2010,08,26,10,58,24.20
2010,08,26,10,59,17.70
2010,08,26,11,00,19.30
2010,08,26,11,01,11.30
2010,08,26,11,02,24.20
2010,08,26,11,03,32.20
2010,08,26,11,04,25.70
2010,08,26,11,05,22.50
2010,08,26,11,06,22.50
2010,08,26,11,07,27.40
2010,08,26,11,08,24.20
2010,08,26,11,09,27.40
2010,08,26,11,10,27.40
2010,08,26,11,11,24.20
2010,08,26,11,12,27.40
2010,08,26,11,13,24.20
2010,08,26,11,14,11.30
2010,08,26,11,15,17.70
2010,08,26,11,16,20.90
2010,08,26,11,17,19.30
2010,08,26,11,18,16.10
2010,08,26,11,19,25.70
2010,08,26,11,20,20.90
2010,08,26,11,21,24.20
2010,08,26,11,22,20.90
2010,08,26,11,23,9.60
2010,08,26,11,24,29.00
2010,08,26,11,25,30.60
2010,08,26,11,26,25.70
2010,08,26,11,27,16.10
2010,08,26,11,28,17.70
2010,08,26,11,29,25.70
2010,08,26,11,30,20.90
2010,08,26,11,31,8.10
2010,08,26,11,32,17.70
2010,08,26,11,33,19.30
2010,08,26,11,34,22.50
2010,08,26,11,35,29.00
2010,08,26,11,36,32.20
2010,08,26,11,37,37.00
2010,08,26,11,38,16.10
2010,08,26,11,39,19.30
2010,08,26,11,40,25.70
2010,08,26,11,41,24.20
2010,08,26,11,42,25.70
2010,08,26,11,43,11.30
2010,08,26,11,44,9.60
2010,08,26,11,45,11.30
2010,08,26,11,46,19.30
2010,08,26,11,47,11.30
2010,08,26,11,48,16.10
2010,08,26,11,49,30.60
2010,08,26,11,50,38.60
2010,08,26,11,51,22.50
2010,08,26,11,52,19.30
2010,08,26,11,53,16.10
2010,08,26,11,54,25.70
2010,08,26,11,55,20.90
2010,08,26,11,56,20.90
2010,08,26,11,57,24.20
2010,08,26,11,58,27.40
2010,08,26,11,59,25.70
2010,08,26,12,00,17.70
2010,08,26,12,01,20.90
2010,08,26,12,02,27.40
2010,08,26,12,03,35.40
2010,08,26,12,04,35.40
2010,08,26,12,05,30.60
2010,08,26,12,06,16.10
2010,08,26,12,07,16.10
2010,08,26,12,08,19.30
2010,08,26,12,09,22.50
2010,08,26,12,10,17.70
2010,08,26,12,11,22.50
2010,08,26,12,12,11.30
2010,08,26,12,13,19.30
2010,08,26,12,14,11.30
2010,08,26,12,15,25.70
2010,08,26,12,16,29.00
2010,08,26,12,17,27.40
2010,08,26,12,18,22.50
2010,08,26,12,19,27.40
2010,08,26,12,20,20.90
2010,08,26,12,21,22.50
2010,08,26,12,22,16.10
2010,08,26,12,23,22.50
2010,08,26,12,24,20.90
2010,08,26,12,25,14.50
2010,08,26,12,26,29.00
2010,08,26,12,27,35.40
2010,08,26,12,28,22.50
2010,08,26,12,29,24.20
2010,08,26,12,30,24.20
2010,08,26,12,31,33.80
2010,08,26,12,32,22.50
2010,08,26,12,33,17.70
2010,08,26,12,34,22.50
2010,08,26,12,35,27.40
2010,08,26,12,36,22.50
2010,08,26,12,37,27.40
2010,08,26,12,38,14.50
2010,08,26,12,39,19.30
2010,08,26,12,40,22.50
2010,08,26,12,41,35.40
2010,08,26,12,42,24.20
2010,08,26,12,43,32.20
2010,08,26,12,44,30.60
2010,08,26,12,45,30.60
2010,08,26,12,46,32.20
2010,08,26,12,47,41.80
2010,08,26,12,48,17.70
2010,08,26,12,49,27.40
2010,08,26,12,50,20.90
2010,08,26,12,51,16.10
2010,08,26,12,52,22.50
2010,08,26,12,53,16.10
2010,08,26,12,54,30.60
2010,08,26,12,55,20.90
2010,08,26,12,56,14.50
2010,08,26,12,57,20.90
2010,08,26,12,58,22.50
2010,08,26,12,59,22.50
2010,08,26,13,00,27.40
2010,08,26,13,01,20.90
2010,08,26,13,02,17.70
2010,08,26,13,03,22.50
2010,08,26,13,04,29.00
2010,08,26,13,05,38.60
2010,08,26,13,06,25.70
2010,08,26,13,07,25.70
2010,08,26,13,08,19.30
2010,08,26,13,09,19.30
2010,08,26,13,10,12.90
2010,08,26,13,11,16.10
2010,08,26,13,12,24.20
2010,08,26,13,13,19.30
2010,08,26,13,14,29.00
2010,08,26,13,15,24.20
2010,08,26,13,16,27.40
2010,08,26,13,17,6.40
2010,08,26,13,18,24.20
2010,08,26,13,19,29.00
2010,08,26,13,20,30.60
2010,08,26,13,21,16.10
2010,08,26,13,22,19.30
2010,08,26,13,23,30.60
2010,08,26,13,24,32.20
2010,08,26,13,25,29.00
2010,08,26,13,26,29.00
2010,08,26,13,27,24.20
2010,08,26,13,28,24.20
2010,08,26,13,29,16.10
2010,08,26,13,30,29.00
2010,08,26,13,31,11.30
2010,08,26,13,32,24.20
2010,08,26,13,33,29.00
2010,08,26,13,34,20.90
2010,08,26,13,35,30.60
2010,08,26,13,36,17.70
2010,08,26,13,37,12.90
2010,08,26,13,38,16.10
2010,08,26,13,39,24.20
2010,08,26,13,40,17.70
2010,08,26,13,41,17.70
2010,08,26,13,42,9.60
2010,08,26,13,43,14.50
2010,08,26,13,44,17.70
2010,08,26,13,45,20.90
2010,08,26,13,46,8.10
2010,08,26,13,47,8.10
2010,08,26,13,48,11.30
2010,08,26,13,49,19.30
2010,08,26,13,50,24.20
2010,08,26,13,51,22.50
2010,08,26,13,52,19.30
2010,08,26,13,53,30.60
2010,08,26,13,54,19.30
2010,08,26,13,55,30.60
2010,08,26,13,56,32.20
2010,08,26,13,57,32.20
2010,08,26,13,58,27.40
2010,08,26,13,59,22.50
2010,08,26,14,00,25.70
2010,08,26,14,01,32.20
2010,08,26,14,02,19.30
2010,08,26,14,03,9.60
2010,08,26,14,04,27.40
2010,08,26,14,05,20.90
2010,08,26,14,06,19.30
2010,08,26,14,07,16.10
2010,08,26,14,08,8.10
2010,08,26,14,09,19.30
2010,08,26,14,10,24.20
2010,08,26,14,11,24.20
2010,08,26,14,12,16.10
2010,08,26,14,13,9.60
2010,08,26,14,14,25.70
2010,08,26,14,15,12.90
2010,08,26,14,16,22.50
2010,08,26,14,17,22.50
2010,08,26,14,18,20.90
2010,08,26,14,19,20.90
2010,08,26,14,20,9.60
2010,08,26,14,21,16.10
2010,08,26,14,22,14.50
2010,08,26,14,23,11.30
2010,08,26,14,24,20.90
2010,08,26,14,25,17.70
2010,08,26,14,26,16.10
2010,08,26,14,27,17.70
2010,08,26,14,28,14.50
2010,08,26,14,29,24.20
2010,08,26,14,30,11.30
2010,08,26,14,31,14.50
2010,08,26,14,32,29.00
2010,08,26,14,33,17.70
2010,08,26,14,34,19.30
2010,08,26,14,35,22.50
2010,08,26,14,36,20.90
2010,08,26,14,37,8.10
2010,08,26,14,38,19.30
2010,08,26,14,39,17.70
2010,08,26,14,40,22.50
2010,08,26,14,41,19.30
2010,08,26,14,42,16.10
2010,08,26,14,43,17.70
2010,08,26,14,44,8.10
2010,08,26,14,45,14.50
2010,08,26,14,46,14.50
2010,08,26,14,47,19.30
2010,08,26,14,48,16.10
2010,08,26,14,49,16.10
2010,08,26,14,50,16.10
2010,08,26,14,51,14.50
2010,08,26,14,52,8.10
2010,08,26,14,53,11.30
2010,08,26,14,54,8.10
2010,08,26,14,55,6.40
2010,08,26,14,56,22.50
2010,08,26,14,57,19.30
2010,08,26,14,58,20.90
2010,08,26,14,59,17.70
2010,08,26,15,00,8.10
2010,08,26,15,01,11.30
2010,08,26,15,02,4.80
2010,08,26,15,03,6.40
2010,08,26,15,04,11.30
2010,08,26,15,05,17.70
2010,08,26,15,06,22.50
2010,08,26,15,07,11.30
2010,08,26,15,08,17.70
2010,08,26,15,09,9.60
2010,08,26,15,10,30.60
2010,08,26,15,11,22.50
2010,08,26,15,12,11.30
2010,08,26,15,13,8.10
2010,08,26,15,14,9.60
2010,08,26,15,15,25.70
2010,08,26,15,16,29.00
2010,08,26,15,17,14.50
2010,08,26,15,18,11.30
2010,08,26,15,19,8.10
2010,08,26,15,20,8.10
2010,08,26,15,21,8.10
2010,08,26,15,22,9.60
2010,08,26,15,23,11.30
2010,08,26,15,24,19.30
2010,08,26,15,25,9.60
2010,08,26,15,26,24.20
2010,08,26,15,27,14.50
2010,08,26,15,28,4.80
2010,08,26,15,29,19.30
2010,08,26,15,30,19.30
2010,08,26,15,31,19.30
2010,08,26,15,32,17.70
2010,08,26,15,33,9.60
2010,08,26,15,34,8.10
2010,08,26,15,35,14.50
2010,08,26,15,36,25.70
2010,08,26,15,37,20.90
2010,08,26,15,38,8.10
2010,08,26,15,39,17.70
2010,08,26,15,40,11.30
2010,08,26,15,41,22.50
2010,08,26,15,42,17.70
2010,08,26,15,43,9.60
2010,08,26,15,44,16.10
2010,08,26,15,45,25.70
2010,08,26,15,46,25.70
2010,08,26,15,47,30.60
2010,08,26,15,48,25.70
2010,08,26,15,49,27.40
2010,08,26,15,50,20.90
2010,08,26,15,51,25.70
2010,08,26,15,52,27.40
2010,08,26,15,53,27.40
2010,08,26,15,54,25.70
2010,08,26,15,55,12.90
2010,08,26,15,56,16.10
2010,08,26,15,57,16.10
2010,08,26,15,58,11.30
2010,08,26,15,59,9.60
2010,08,26,16,00,12.90
2010,08,26,16,01,20.90
2010,08,26,16,02,12.90
2010,08,26,16,03,25.70
2010,08,26,16,04,14.50
2010,08,26,16,05,12.90
2010,08,26,16,06,4.80
2010,08,26,16,07,8.10
2010,08,26,16,08,19.30
2010,08,26,16,09,14.50
2010,08,26,16,10,17.70
2010,08,26,16,11,17.70
2010,08,26,16,12,32.20
2010,08,26,16,13,14.50
2010,08,26,16,14,16.10
2010,08,26,16,15,16.10
2010,08,26,16,16,14.50
2010,08,26,16,17,19.30
2010,08,26,16,18,17.70
2010,08,26,16,19,20.90
2010,08,26,16,20,20.90
2010,08,26,16,21,25.70
2010,08,26,16,22,17.70
2010,08,26,16,23,17.70
2010,08,26,16,24,17.70
2010,08,26,16,25,11.30
2010,08,26,16,26,16.10
2010,08,26,16,27,9.60
2010,08,26,16,28,14.50
2010,08,26,16,29,25.70
2010,08,26,16,30,9.60
2010,08,26,16,31,14.50
2010,08,26,16,32,17.70
2010,08,26,16,33,25.70
2010,08,26,16,34,14.50
2010,08,26,16,35,20.90
2010,08,26,16,36,22.50
2010,08,26,16,37,17.70
2010,08,26,16,38,9.60
2010,08,26,16,39,20.90
2010,08,26,16,40,14.50
2010,08,26,16,41,14.50
2010,08,26,16,42,14.50
2010,08,26,16,43,16.10
2010,08,26,16,44,24.20
2010,08,26,16,45,24.20
2010,08,26,16,46,25.70
2010,08,26,16,47,14.50
2010,08,26,16,48,16.10
2010,08,26,16,49,29.00
2010,08,26,16,50,29.00
2010,08,26,16,51,16.10
2010,08,26,16,52,19.30
2010,08,26,16,53,11.30
2010,08,26,16,54,11.30
2010,08,26,16,55,32.20
2010,08,26,16,56,25.70
2010,08,26,16,57,20.90
2010,08,26,16,58,16.10
2010,08,26,16,59,27.40
2010,08,26,17,00,22.50
2010,08,26,17,01,14.50
2010,08,26,17,02,16.10
2010,08,26,17,03,14.50
2010,08,26,17,04,11.30
2010,08,26,17,05,14.50
2010,08,26,17,06,24.20
2010,08,26,17,07,25.70
2010,08,26,17,08,14.50
2010,08,26,17,09,17.70
2010,08,26,17,10,8.10
2010,08,26,17,11,9.60
2010,08,26,17,12,14.50
2010,08,26,17,13,24.20
2010,08,26,17,14,19.30
2010,08,26,17,15,11.30
2010,08,26,17,16,20.90
2010,08,26,17,17,9.60
2010,08,26,17,18,14.50
2010,08,26,17,19,19.30
2010,08,26,17,20,9.60
2010,08,26,17,21,9.60
2010,08,26,17,22,11.30
2010,08,26,17,23,16.10
2010,08,26,17,24,8.10
2010,08,26,17,25,22.50
2010,08,26,17,26,19.30
2010,08,26,17,27,17.70
2010,08,26,17,28,11.30
2010,08,26,17,29,17.70
2010,08,26,17,30,19.30
2010,08,26,17,31,6.40
2010,08,26,17,32,1.60
2010,08,26,17,33,6.40
2010,08,26,17,34,9.60
2010,08,26,17,35,14.50
2010,08,26,17,36,11.30
2010,08,26,17,37,19.30
2010,08,26,17,38,17.70
2010,08,26,17,39,14.50
2010,08,26,17,40,9.60
2010,08,26,17,41,17.70
2010,08,26,17,42,11.30
2010,08,26,17,43,22.50
2010,08,26,17,44,24.20
2010,08,26,17,45,11.30
2010,08,26,17,46,9.60
2010,08,26,17,47,9.60
2010,08,26,17,48,20.90
2010,08,26,17,49,11.30
2010,08,26,17,50,11.30
2010,08,26,17,51,17.70
2010,08,26,17,52,14.50
2010,08,26,17,53,11.30
2010,08,26,17,54,8.10
2010,08,26,17,55,14.50
2010,08,26,17,56,8.10
2010,08,26,17,57,6.40
2010,08,26,17,58,33.80
2010,08,26,17,59,25.70
2010,08,26,18,00,24.20
2010,08,26,18,01,9.60
2010,08,26,18,02,29.00
2010,08,26,18,03,37.00
2010,08,26,18,04,19.30
2010,08,26,18,05,17.70
2010,08,26,18,06,9.60
2010,08,26,18,07,4.80
2010,08,26,18,08,9.60
2010,08,26,18,09,6.40
2010,08,26,18,10,4.80
2010,08,26,18,11,11.30
2010,08,26,18,12,17.70
2010,08,26,18,13,17.70
2010,08,26,18,14,19.30
2010,08,26,18,15,22.50
2010,08,26,18,16,17.70
2010,08,26,18,17,14.50
2010,08,26,18,18,25.70
2010,08,26,18,19,8.10
2010,08,26,18,20,14.50
2010,08,26,18,21,22.50
2010,08,26,18,22,20.90
2010,08,26,18,23,8.10
2010,08,26,18,24,12.90
2010,08,26,18,25,14.50
2010,08,26,18,26,14.50
2010,08,26,18,27,6.40
2010,08,26,18,28,11.30
2010,08,26,18,29,11.30
2010,08,26,18,30,6.40
2010,08,26,18,31,27.40
2010,08,26,18,32,11.30
2010,08,26,18,33,24.20
2010,08,26,18,34,14.50
2010,08,26,18,35,16.10
2010,08,26,18,36,14.50
2010,08,26,18,37,8.10
2010,08,26,18,38,9.60
2010,08,26,18,39,9.60
2010,08,26,18,40,8.10
2010,08,26,18,41,9.60
2010,08,26,18,42,3.20
2010,08,26,18,43,8.10
2010,08,26,18,44,19.30
2010,08,26,18,45,25.70
2010,08,26,18,46,27.40
2010,08,26,18,47,20.90
2010,08,26,18,48,17.70
2010,08,26,18,49,8.10
2010,08,26,18,50,11.30
2010,08,26,18,51,16.10
2010,08,26,18,52,25.70
2010,08,26,18,53,8.10
2010,08,26,18,54,9.60
2010,08,26,18,55,8.10
2010,08,26,18,56,11.30
2010,08,26,18,57,37.00
2010,08,26,18,58,11.30
2010,08,26,18,59,11.30
2010,08,26,19,00,30.60
2010,08,26,19,01,16.10
2010,08,26,19,02,22.50
2010,08,26,19,03,8.10
2010,08,26,19,04,14.50
2010,08,26,19,05,22.50
2010,08,26,19,06,11.30
2010,08,26,19,07,12.90
2010,08,26,19,08,20.90
2010,08,26,19,09,14.50
2010,08,26,19,10,4.80
2010,08,26,19,11,11.30
2010,08,26,19,12,9.60
2010,08,26,19,13,6.40
2010,08,26,19,14,4.80
2010,08,26,19,15,6.40
2010,08,26,19,16,16.10
2010,08,26,19,17,11.30
2010,08,26,19,18,6.40
2010,08,26,19,19,4.80
2010,08,26,19,20,12.90
2010,08,26,19,21,20.90
2010,08,26,19,22,9.60
2010,08,26,19,23,6.40
2010,08,26,19,24,8.10
2010,08,26,19,25,8.10
2010,08,26,19,26,4.80
2010,08,26,19,27,14.50
2010,08,26,19,28,11.30
2010,08,26,19,29,19.30
2010,08,26,19,30,8.10
2010,08,26,19,31,4.80
2010,08,26,19,32,9.60
2010,08,26,19,33,20.90
2010,08,26,19,34,16.10
2010,08,26,19,35,11.30
2010,08,26,19,36,16.10
2010,08,26,19,37,14.50
2010,08,26,19,38,4.80
2010,08,26,19,39,9.60
2010,08,26,19,40,16.10
2010,08,26,19,41,8.10
2010,08,26,19,42,19.30
2010,08,26,19,43,19.30
2010,08,26,19,44,8.10
2010,08,26,19,45,8.10
2010,08,26,19,46,14.50
2010,08,26,19,47,6.40
2010,08,26,19,48,6.40
2010,08,26,19,49,16.10
2010,08,26,19,50,19.30
2010,08,26,19,51,22.50
2010,08,26,19,52,4.80
2010,08,26,19,53,8.10
2010,08,26,19,54,29.00
2010,08,26,19,55,11.30
2010,08,26,19,56,6.40
2010,08,26,19,57,11.30
2010,08,26,19,58,6.40
2010,08,26,19,59,14.50
2010,08,26,20,00,9.60
2010,08,26,20,01,9.60
2010,08,26,20,02,8.10
2010,08,26,20,03,6.40
2010,08,26,20,04,8.10
2010,08,26,20,05,14.50
2010,08,26,20,06,17.70
2010,08,26,20,07,8.10
2010,08,26,20,08,6.40
2010,08,26,20,09,8.10
2010,08,26,20,10,16.10
2010,08,26,20,11,11.30
2010,08,26,20,12,8.10
2010,08,26,20,13,8.10
2010,08,26,20,14,14.50
2010,08,26,20,15,11.30
2010,08,26,20,16,6.40
2010,08,26,20,17,6.40
2010,08,26,20,18,14.50
2010,08,26,20,19,14.50
2010,08,26,20,20,6.40
2010,08,26,20,21,8.10
2010,08,26,20,22,4.80
2010,08,26,20,25,1.60
2010,08,26,20,26,1.60
2010,08,26,20,28,1.60
2010,08,26,20,29,8.10
2010,08,26,20,30,3.20
2010,08,26,20,31,1.60
2010,08,26,20,32,1.60
2010,08,26,20,33,6.40
2010,08,26,20,34,3.20
2010,08,26,20,35,16.10
2010,08,26,20,36,9.60
2010,08,26,20,37,8.10
2010,08,26,20,38,8.10
2010,08,26,20,39,8.10
2010,08,26,20,40,8.10
2010,08,26,20,41,14.50
2010,08,26,20,42,6.40
2010,08,26,20,43,4.80
2010,08,26,20,44,19.30
2010,08,26,20,45,16.10
2010,08,26,20,46,14.50
2010,08,26,20,47,6.40
2010,08,26,20,48,6.40
2010,08,26,20,49,19.30
2010,08,26,20,50,16.10
2010,08,26,20,51,4.80
2010,08,26,20,52,11.30
2010,08,26,20,53,11.30
2010,08,26,20,54,9.60
2010,08,26,20,55,9.60
2010,08,26,20,56,8.10
2010,08,26,20,57,4.80
2010,08,26,20,58,4.80
2010,08,26,20,59,9.60
2010,08,26,21,00,6.40
2010,08,26,21,01,4.80
2010,08,26,21,03,4.80
2010,08,26,21,04,14.50
2010,08,26,21,05,16.10
2010,08,26,21,06,4.80
2010,08,26,21,07,9.60
2010,08,26,21,08,8.10
2010,08,26,21,09,14.50
2010,08,26,21,10,12.90
2010,08,26,21,11,4.80
2010,08,26,21,12,8.10
2010,08,26,21,13,9.60
2010,08,26,21,14,11.30
2010,08,26,21,15,11.30
2010,08,26,21,16,11.30
2010,08,26,21,17,14.50
2010,08,26,21,18,4.80
2010,08,26,21,19,9.60
2010,08,26,21,20,9.60
2010,08,26,21,21,3.20
2010,08,26,21,22,4.80
2010,08,26,21,23,6.40
2010,08,26,21,24,4.80
2010,08,26,21,25,6.40
2010,08,26,21,26,4.80
2010,08,26,21,27,9.60
2010,08,26,21,28,6.40
2010,08,26,21,29,8.10
2010,08,26,21,30,8.10
2010,08,26,21,31,6.40
2010,08,26,21,33,6.40
2010,08,26,21,34,9.60
2010,08,26,21,35,11.30
2010,08,26,21,36,8.10
2010,08,26,21,37,11.30
2010,08,26,21,38,9.60
2010,08,26,21,39,9.60
2010,08,26,21,40,8.10
2010,08,26,21,41,11.30
2010,08,26,21,42,8.10
2010,08,26,21,43,6.40
2010,08,26,21,44,9.60
2010,08,26,21,45,3.20
2010,08,26,21,46,8.10
2010,08,26,21,47,8.10
2010,08,26,21,48,9.60
2010,08,26,21,49,12.90
2010,08,26,21,50,11.30
2010,08,26,21,51,9.60
2010,08,26,21,52,16.10
2010,08,26,21,53,11.30
2010,08,26,21,54,1.60
2010,08,26,21,55,4.80
2010,08,26,21,56,8.10
2010,08,26,21,57,8.10
2010,08,26,21,58,9.60
2010,08,26,21,59,6.40
2010,08,26,22,00,14.50
2010,08,26,22,01,6.40
2010,08,26,22,02,8.10
2010,08,26,22,03,14.50
2010,08,26,22,04,8.10
2010,08,26,22,05,11.30
2010,08,26,22,06,9.60
2010,08,26,22,07,8.10
2010,08,26,22,08,11.30
2010,08,26,22,09,3.20
2010,08,26,22,10,1.60
2010,08,26,22,11,8.10
2010,08,26,22,12,8.10
2010,08,26,22,13,6.40
2010,08,26,22,14,8.10
2010,08,26,22,15,4.80
2010,08,26,22,16,9.60
2010,08,26,22,17,6.40
2010,08,26,22,18,14.50
2010,08,26,22,19,8.10
2010,08,26,22,20,8.10
2010,08,26,22,21,4.80
2010,08,26,22,22,9.60
2010,08,26,22,23,14.50